Regional Weather Roundup
Issued by NWS Portland, ME

Current Version | Previous Version | Text Only | Print | Product List | Glossary On
Versions: 1 2 3 4 5 6 7 8 9 10 11 12 13 14 15 16 17 18 19 20 21 22 23 24 25 26 27 28 29 30 31 32 33 34 35 36 37 38 39 40 41 42 43 44 45 46 47 48 49 50
000 ASUS41 KGYX 190410 RWRGYX WEATHER ROUNDUP FOR MAINE AND NEW HAMPSHIRE NATIONAL WEATHER SERVICE GRAY ME 1200 AM EDT SUN APR 19 2015 MEZ002-005-006-010-012-015-018-020-021-024-026-027-029-190500- MAINE CITY SKY/WX TMP DP RH WIND PRES REMARKS PORTLAND MOCLDY 43 36 76 NW7 30.07R SANFORD CLEAR 32 27 80 NW3 30.07R BAR HARBOR CLOUDY 39 37 93 CALM 30.03S WISCASSET CLOUDY 41 39 93 CALM 30.06R ROCKLAND CLOUDY 37 36 93 CALM 30.03S FRYEBURG PTCLDY 39 32 76 CALM 30.08R LEWISTONAUBURN CLOUDY 43 34 70 NW13G20 30.05R AUGUSTA CLOUDY 41 38 89 NW8 30.05R WATERVILLE CLOUDY 43 36 75 NW10 30.03R BANGOR CLOUDY 40 39 97 W7 30.02S GREENVILLE N/A 35 28 75 N16G24 30.01R MILLINOCKET CLOUDY 45 29 53 N7 30.04R HOULTON CLOUDY 39 25 57 NE9 30.02R PRESQUE ISLE CLOUDY 39 19 45 NW10 30.05R FRENCHVILLE CLOUDY 35 17 47 N5 30.03R CARIBOU CLOUDY 38 21 50 NW7 30.03R $$ NHZ002-005-008-009-011-012-014-190500- NEW HAMPSHIRE CITY SKY/WX TMP DP RH WIND PRES REMARKS PORTSMOUTH CLEAR 37 36 96 SW3 30.06R ROCHESTER CLEAR 39 35 86 VRB3 30.06R NASHUA CLEAR 49 34 56 N13 30.08R MANCHESTER FAIR 49 31 49 NW12 30.07R CONCORD CLEAR 46 32 58 N10G17 30.08R LACONIA CLEAR 45 28 53 E6 30.08R PLYMOUTH CLOUDY 45 36 72 W5 30.11R BERLIN CLOUDY 39 32 76 N10 30.09R WHITEFIELD CLOUDY 41 32 70 CALM 30.11R JAFFREY CLEAR 46 32 58 VRB7 30.07S KEENE CLEAR 46 32 57 N13 30.08S LEBANON PTCLDY 45 32 60 N7 30.12R MT WASHINGTON FOG 19 19 100 NW47G58 N/A VSB 0 WCI -3 $$ VTZ005-007-008-190500- VERMONT CITY SKY/WX TMP DP RH WIND PRES REMARKS ST JOHNSBURY N/A 43 33 68 MISG 30.12R MONTPELIER CLEAR 41 30 65 NW13 30.16R BURLINGTON CLEAR 44 29 55 N15 30.18R $$ MAZ007-012-024-CTZ003-RIZ002-NYZ038-NYZ072-190500- SOUTHERN NEW ENGLAND AND NY CITY SKY/WX TMP DP RH WIND PRES REMARKS BOSTON CLEAR 44 39 82 N3 30.09R WORCESTER CLEAR 49 39 68 NE5 30.07R NANTUCKET CLEAR 45 41 86 N10 30.04R PROVIDENCE CLEAR 49 40 71 NE9 30.07R HARTFORD CLEAR 58 22 24 N12 30.07R ALBANY FAIR 49 30 48 E6 30.12R NEW YORK CITY PTCLDY 63 29 27 N12 30.05R $$ ANZ081-ANZ082-ANZ150-NHZ014-MEZ023>029-190500- COASTAL MARINE OBSERVATIONS STATION/POSITION TIME TEMP WIND PRES WAVE AIR SEA DIR/SP/G HT/PER (UTC) (F) (DEG/KT/KT) (MB) (FT/S) MOUNT DESERT ROC 0400 38 330/ 9/ 10 1016.8S MATINICUS ROCK 0300 38 320/ 8/ 8 1016.5R WELLS 0300 38 39 260/ 5/ 6 1017.0R ISLE OF SHOALS 0300 42 360/ 10/ 10 1017.3R CASHES LEDGE BUO 0350 40 40 1016.5R $$ .............KEY.............. WCI - WIND CHILL TC - TEMPERATURE IN CELSIUS VSB - VISIBILITY IN MILES HX - HEAT INDEX FAIR- INDICATES FEW OR NO CLOUDS BELOW 12,000 FT, WITH NO SIGNIFICANT WEATHER AND/OR OBSTRUCTIONS TO VISIBILITY.

USA.gov is the U.S. government's official web portal to all federal, state and local government web resources and services.